{"data":{"norad_id":66337,"epoch":"2026-05-25T00:32:22.361856Z","epoch_age_seconds":69046,"freshness":"FRESH","line1":"1 66337U 25253U   26145.02248104  .00013652  00000+0  50451-3 0  9995","line2":"2 66337  42.9989 141.8471 0002186 283.9838  76.0770 15.27591448 31919","mean_motion":15.27591448,"eccentricity":0.0002186,"inclination_deg":42.9989,"raan_deg":141.8471,"arg_perigee_deg":283.9838,"mean_anomaly_deg":76.077,"bstar":0.00050451,"rev_number":3191,"period_min":94.266042264463,"perigee_km":481.51496903618,"apogee_km":484.51466461049,"semimajor_km":6861.1518168233,"source":"CELESTRAK","updated_at":"2026-05-25T13:38:21.170620Z"}}